contact:dominique.lefevre@mio.osupytheas.fr, maurice.libes@osupytheas.fr, didier.mallarino@osupytheas.fr
Project:EMSO http://www.emso-fr.org/EMSO-France
Depth: 2436.0 m
Title:EMSO Ligure Ouest : Data MII capteur MICROCAT
DateTime_Computer,Latitude,Longitude,Temperature,Conductivity,Pressure,DateTime_Instrument
DateTime_Computer,Latitude,Longitude,degC,S m-1,dbar,DateTime_Instrument
2020-10-09T00:01:29Z,42.805,6.029,13.2976,4.60028,2470.18,2020-10-09T02:02:22Z
2020-10-09T00:04:32Z,42.805,6.029,13.2984,4.60038,2470.217,2020-10-09T02:05:25Z
2020-10-09T00:07:35Z,42.805,6.029,13.3015,4.59983,2470.217,2020-10-09T02:08:29Z
2020-10-09T00:10:38Z,42.805,6.029,13.3007,4.60000,2470.203,2020-10-09T02:11:32Z
2020-10-09T00:13:41Z,42.805,6.029,13.3012,4.60017,2470.217,2020-10-09T02:14:35Z
2020-10-09T00:16:44Z,42.805,6.029,13.3019,4.60046,2470.18,2020-10-09T02:17:38Z
2020-10-09T00:19:48Z,42.805,6.029,13.3024,4.60028,2470.217,2020-10-09T02:20:41Z
2020-10-09T00:22:51Z,42.805,6.029,13.3019,4.60022,2470.18,2020-10-09T02:23:44Z
2020-10-09T00:25:54Z,42.805,6.029,13.3021,4.60036,2470.18,2020-10-09T02:26:47Z
2020-10-09T00:28:57Z,42.805,6.029,13.3022,4.60027,2470.194,2020-10-09T02:29:50Z
2020-10-09T00:32:00Z,42.805,6.029,13.3012,4.60038,2470.143,2020-10-09T02:32:54Z
2020-10-09T00:35:03Z,42.805,6.029,13.3019,4.60054,2470.18,2020-10-09T02:35:57Z
2020-10-09T00:38:06Z,42.805,6.029,13.3007,4.60053,2470.18,2020-10-09T02:39:00Z
2020-10-09T00:41:09Z,42.805,6.029,13.3008,4.60042,2470.194,2020-10-09T02:42:03Z
2020-10-09T00:44:12Z,42.805,6.029,13.3011,4.60061,2470.194,2020-10-09T02:45:06Z
2020-10-09T00:47:16Z,42.805,6.029,13.2996,4.60042,2470.133,2020-10-09T02:48:09Z
2020-10-09T00:50:19Z,42.805,6.029,13.3007,4.60069,2470.156,2020-10-09T02:51:12Z
2020-10-09T00:53:22Z,42.805,6.029,13.2995,4.60086,2470.171,2020-10-09T02:54:15Z
2020-10-09T00:56:25Z,42.805,6.029,13.2996,4.60114,2470.156,2020-10-09T02:57:18Z
2020-10-09T00:59:28Z,42.805,6.029,13.3018,4.60088,2470.171,2020-10-09T03:00:22Z
2020-10-09T01:02:31Z,42.805,6.029,13.2994,4.60120,2470.18,2020-10-09T03:03:25Z
2020-10-09T01:05:34Z,42.805,6.029,13.3000,4.60120,2470.18,2020-10-09T03:06:28Z
2020-10-09T01:08:37Z,42.805,6.029,13.2996,4.60106,2470.119,2020-10-09T03:09:31Z
2020-10-09T01:11:41Z,42.805,6.029,13.3012,4.60098,2470.171,2020-10-09T03:12:34Z
2020-10-09T01:14:44Z,42.805,6.029,13.3002,4.60089,2470.18,2020-10-09T03:15:37Z
2020-10-09T01:17:47Z,42.805,6.029,13.3002,4.60058,2470.133,2020-10-09T03:18:40Z
2020-10-09T01:20:50Z,42.805,6.029,13.3005,4.60046,2470.171,2020-10-09T03:21:43Z
2020-10-09T01:23:53Z,42.805,6.029,13.3012,4.60062,2470.171,2020-10-09T03:24:47Z
2020-10-09T01:26:56Z,42.805,6.029,13.3015,4.60037,2470.133,2020-10-09T03:27:50Z
2020-10-09T01:29:59Z,42.805,6.029,13.3034,4.60044,2470.171,2020-10-09T03:30:53Z
2020-10-09T01:33:02Z,42.805,6.029,13.3006,4.60033,2470.133,2020-10-09T03:33:56Z
2020-10-09T01:36:05Z,42.805,6.029,13.3005,4.60044,2470.171,2020-10-09T03:36:59Z
2020-10-09T01:39:09Z,42.805,6.029,13.3011,4.60079,2470.147,2020-10-09T03:40:02Z
2020-10-09T01:42:12Z,42.805,6.029,13.3024,4.60039,2470.11,2020-10-09T03:43:05Z
2020-10-09T01:45:15Z,42.805,6.029,13.3044,4.60027,2470.18,2020-10-09T03:46:08Z
2020-10-09T01:48:18Z,42.805,6.029,13.3020,4.60027,2470.147,2020-10-09T03:49:11Z
2020-10-09T01:51:21Z,42.805,6.029,13.3032,4.60009,2470.156,2020-10-09T03:52:15Z
2020-10-09T01:54:24Z,42.805,6.029,13.3003,4.60025,2470.133,2020-10-09T03:55:18Z
2020-10-09T01:57:27Z,42.805,6.029,13.3065,4.60021,2470.147,2020-10-09T03:58:21Z
2020-10-09T02:00:30Z,42.805,6.029,13.3014,4.60016,2470.156,2020-10-09T04:01:24Z
2020-10-09T02:03:33Z,42.805,6.029,13.3003,4.60001,2470.147,2020-10-09T04:04:27Z
2020-10-09T02:06:37Z,42.805,6.029,13.3005,4.60000,2470.156,2020-10-09T04:07:30Z
2020-10-09T02:09:40Z,42.805,6.029,13.3034,4.59996,2470.156,2020-10-09T04:10:33Z
2020-10-09T02:12:43Z,42.805,6.029,13.3014,4.59997,2470.18,2020-10-09T04:13:36Z
2020-10-09T02:15:46Z,42.805,6.029,13.3001,4.60005,2470.147,2020-10-09T04:16:39Z
2020-10-09T02:18:49Z,42.805,6.029,13.3007,4.60015,2470.147,2020-10-09T04:19:43Z
2020-10-09T02:21:52Z,42.805,6.029,13.3046,4.60008,2470.147,2020-10-09T04:22:46Z
2020-10-09T02:24:55Z,42.805,6.029,13.3019,4.60016,2470.133,2020-10-09T04:25:49Z
2020-10-09T02:27:58Z,42.805,6.029,13.3018,4.60009,2470.156,2020-10-09T04:28:52Z
2020-10-09T02:31:02Z,42.805,6.029,13.3021,4.60003,2470.156,2020-10-09T04:31:55Z
2020-10-09T02:34:05Z,42.805,6.029,13.3009,4.60013,2470.133,2020-10-09T04:34:58Z
2020-10-09T02:37:08Z,42.805,6.029,13.3023,4.60018,2470.133,2020-10-09T04:38:01Z
2020-10-09T02:40:11Z,42.805,6.029,13.3028,4.60005,2470.147,2020-10-09T04:41:04Z
2020-10-09T02:43:14Z,42.805,6.029,13.3016,4.60010,2470.156,2020-10-09T04:44:08Z
2020-10-09T02:46:17Z,42.805,6.029,13.3029,4.60020,2470.147,2020-10-09T04:47:11Z
2020-10-09T02:49:20Z,42.805,6.029,13.3017,4.60006,2470.18,2020-10-09T04:50:14Z
2020-10-09T02:52:23Z,42.805,6.029,13.3044,4.60028,2470.133,2020-10-09T04:53:17Z
2020-10-09T02:55:26Z,42.805,6.029,13.3031,4.60015,2470.133,2020-10-09T04:56:20Z
2020-10-09T02:58:30Z,42.805,6.029,13.3041,4.60016,2470.147,2020-10-09T04:59:23Z
2020-10-09T03:01:33Z,42.805,6.029,13.3021,4.60016,2470.147,2020-10-09T05:02:26Z
2020-10-09T03:04:36Z,42.805,6.029,13.2998,4.60017,2470.133,2020-10-09T05:05:29Z
2020-10-09T03:07:39Z,42.805,6.029,13.3005,4.60013,2470.124,2020-10-09T05:08:32Z
2020-10-09T03:10:42Z,42.805,6.029,13.3011,4.60004,2470.124,2020-10-09T05:11:36Z
2020-10-09T03:13:45Z,42.805,6.029,13.3023,4.60019,2470.133,2020-10-09T05:14:39Z
2020-10-09T03:16:48Z,42.805,6.029,13.3018,4.60019,2470.087,2020-10-09T05:17:42Z
2020-10-09T03:19:51Z,42.805,6.029,13.3056,4.60014,2470.11,2020-10-09T05:20:45Z
2020-10-09T03:22:54Z,42.805,6.029,13.3029,4.60013,2470.133,2020-10-09T05:23:48Z
2020-10-09T03:25:58Z,42.805,6.029,13.3027,4.60026,2470.133,2020-10-09T05:26:51Z
2020-10-09T03:29:01Z,42.805,6.029,13.3029,4.60009,2470.147,2020-10-09T05:29:54Z
2020-10-09T03:32:04Z,42.805,6.029,13.3024,4.60009,2470.133,2020-10-09T05:32:57Z
2020-10-09T03:35:07Z,42.805,6.029,13.3039,4.60003,2470.133,2020-10-09T05:36:01Z
2020-10-09T03:38:10Z,42.805,6.029,13.3021,4.60015,2470.11,2020-10-09T05:39:04Z
2020-10-09T03:41:13Z,42.805,6.029,13.3019,4.60010,2470.156,2020-10-09T05:42:07Z
2020-10-09T03:44:16Z,42.805,6.029,13.3019,4.60016,2470.124,2020-10-09T05:45:10Z
2020-10-09T03:47:19Z,42.805,6.029,13.3041,4.60007,2470.133,2020-10-09T05:48:13Z
2020-10-09T03:50:23Z,42.805,6.029,13.3025,4.60008,2470.147,2020-10-09T05:51:16Z
2020-10-09T03:53:26Z,42.805,6.029,13.3023,4.60007,2470.147,2020-10-09T05:54:19Z
2020-10-09T03:56:29Z,42.805,6.029,13.3013,4.60016,2470.124,2020-10-09T05:57:22Z
2020-10-09T03:59:32Z,42.805,6.029,13.3020,4.60018,2470.087,2020-10-09T06:00:25Z
2020-10-09T04:02:35Z,42.805,6.029,13.3015,4.60016,2470.124,2020-10-09T06:03:29Z
2020-10-09T04:05:38Z,42.805,6.029,13.3011,4.60014,2470.11,2020-10-09T06:06:32Z
2020-10-09T04:08:41Z,42.805,6.029,13.3021,4.60016,2470.156,2020-10-09T06:09:35Z
2020-10-09T04:11:44Z,42.805,6.029,13.3019,4.60016,2470.133,2020-10-09T06:12:38Z
2020-10-09T04:14:47Z,42.805,6.029,13.3087,4.60022,2470.171,2020-10-09T06:15:41Z
2020-10-09T04:17:51Z,42.805,6.029,13.3025,4.60019,2470.133,2020-10-09T06:18:44Z
2020-10-09T04:20:54Z,42.805,6.029,13.3015,4.60011,2470.147,2020-10-09T06:21:47Z
2020-10-09T04:23:57Z,42.805,6.029,13.3015,4.60009,2470.147,2020-10-09T06:24:50Z
2020-10-09T04:27:00Z,42.805,6.029,13.3018,4.60009,2470.11,2020-10-09T06:27:54Z
2020-10-09T04:30:03Z,42.805,6.029,13.3059,4.60025,2470.124,2020-10-09T06:30:57Z
2020-10-09T04:33:06Z,42.805,6.029,13.3029,4.60019,2470.124,2020-10-09T06:34:00Z
2020-10-09T04:36:09Z,42.805,6.029,13.3028,4.60018,2470.11,2020-10-09T06:37:03Z
2020-10-09T04:39:12Z,42.805,6.029,13.3018,4.60019,2470.11,2020-10-09T06:40:06Z
2020-10-09T04:42:16Z,42.805,6.029,13.3048,4.60009,2470.124,2020-10-09T06:43:09Z
2020-10-09T04:45:19Z,42.805,6.029,13.3014,4.60009,2470.11,2020-10-09T06:46:12Z
2020-10-09T04:48:22Z,42.805,6.029,13.3021,4.60010,2470.133,2020-10-09T06:49:15Z
2020-10-09T04:51:25Z,42.805,6.029,13.3032,4.60011,2470.133,2020-10-09T06:52:18Z
2020-10-09T04:54:28Z,42.805,6.029,13.3041,4.60009,2470.124,2020-10-09T06:55:22Z
2020-10-09T04:57:31Z,42.805,6.029,13.3012,4.60024,2470.147,2020-10-09T06:58:25Z
2020-10-09T05:00:34Z,42.805,6.029,13.3041,4.60003,2470.124,2020-10-09T07:01:28Z
2020-10-09T05:03:37Z,42.805,6.029,13.3029,4.60005,2470.147,2020-10-09T07:04:31Z
2020-10-09T05:06:40Z,42.805,6.029,13.3021,4.60005,2470.124,2020-10-09T07:07:34Z
2020-10-09T05:09:44Z,42.805,6.029,13.3012,4.60012,2470.124,2020-10-09T07:10:37Z
2020-10-09T05:12:47Z,42.805,6.029,13.3011,4.60015,2470.124,2020-10-09T07:13:40Z
2020-10-09T05:15:50Z,42.805,6.029,13.3019,4.60004,2470.114,2020-10-09T07:16:43Z
2020-10-09T05:18:53Z,42.805,6.029,13.3009,4.60018,2470.087,2020-10-09T07:19:47Z
2020-10-09T05:21:56Z,42.805,6.029,13.3008,4.60021,2470.147,2020-10-09T07:22:50Z
2020-10-09T05:24:59Z,42.805,6.029,13.3004,4.60026,2470.11,2020-10-09T07:25:53Z
2020-10-09T05:28:02Z,42.805,6.029,13.3013,4.60041,2470.11,2020-10-09T07:28:56Z
2020-10-09T05:31:05Z,42.805,6.029,13.3022,4.60016,2470.124,2020-10-09T07:31:59Z
2020-10-09T05:34:09Z,42.805,6.029,13.3004,4.60008,2470.147,2020-10-09T07:35:02Z
2020-10-09T05:37:12Z,42.805,6.029,13.3072,4.60021,2470.1,2020-10-09T07:38:05Z
2020-10-09T05:40:15Z,42.805,6.029,13.3029,4.60019,2470.087,2020-10-09T07:41:08Z
2020-10-09T05:43:18Z,42.805,6.029,13.3014,4.60016,2470.133,2020-10-09T07:44:11Z
2020-10-09T05:46:21Z,42.805,6.029,13.3024,4.60024,2470.077,2020-10-09T07:47:15Z
2020-10-09T05:49:24Z,42.805,6.029,13.2985,4.60014,2470.147,2020-10-09T07:50:18Z
2020-10-09T05:52:27Z,42.805,6.029,13.3005,4.60001,2470.11,2020-10-09T07:53:21Z
2020-10-09T05:55:30Z,42.805,6.029,13.3021,4.60016,2470.087,2020-10-09T07:56:24Z
2020-10-09T05:58:33Z,42.805,6.029,13.2983,4.60012,2470.077,2020-10-09T07:59:27Z
2020-10-09T06:01:37Z,42.805,6.029,13.3030,4.60029,2470.11,2020-10-09T08:02:30Z
2020-10-09T06:04:40Z,42.805,6.029,13.3004,4.60020,2470.133,2020-10-09T08:05:33Z
2020-10-09T06:07:43Z,42.805,6.029,13.3000,4.60015,2470.087,2020-10-09T08:08:36Z
2020-10-09T06:10:46Z,42.805,6.029,13.2998,4.60036,2470.11,2020-10-09T08:11:40Z
2020-10-09T06:13:49Z,42.805,6.029,13.2995,4.60009,2470.124,2020-10-09T08:14:43Z
2020-10-09T06:16:52Z,42.805,6.029,13.3019,4.60026,2470.147,2020-10-09T08:17:46Z
2020-10-09T06:19:55Z,42.805,6.029,13.3015,4.60011,2470.11,2020-10-09T08:20:49Z
2020-10-09T06:22:58Z,42.805,6.029,13.2978,4.60005,2470.133,2020-10-09T08:23:52Z
2020-10-09T06:26:02Z,42.805,6.029,13.2999,4.60007,2470.147,2020-10-09T08:26:55Z
2020-10-09T06:29:05Z,42.805,6.029,13.2994,4.60009,2470.11,2020-10-09T08:29:58Z
2020-10-09T06:32:08Z,42.805,6.029,13.3008,4.60009,2470.133,2020-10-09T08:33:01Z
2020-10-09T06:35:11Z,42.805,6.029,13.3015,4.60029,2470.11,2020-10-09T08:36:04Z
2020-10-09T06:38:14Z,42.805,6.029,13.3007,4.60019,2470.147,2020-10-09T08:39:08Z
2020-10-09T06:41:17Z,42.805,6.029,13.2997,4.60005,2470.133,2020-10-09T08:42:11Z
2020-10-09T06:44:20Z,42.805,6.029,13.3006,4.60002,2470.124,2020-10-09T08:45:14Z
2020-10-09T06:47:23Z,42.805,6.029,13.2985,4.60001,2470.147,2020-10-09T08:48:17Z
2020-10-09T06:50:26Z,42.805,6.029,13.2976,4.60003,2470.11,2020-10-09T08:51:20Z
2020-10-09T06:53:30Z,42.805,6.029,13.2976,4.59992,2470.171,2020-10-09T08:54:23Z
2020-10-09T06:56:33Z,42.805,6.029,13.2976,4.59997,2470.156,2020-10-09T08:57:26Z
2020-10-09T06:59:36Z,42.805,6.029,13.3021,4.60003,2470.124,2020-10-09T09:00:29Z
2020-10-09T07:02:39Z,42.805,6.029,13.2998,4.60054,2470.156,2020-10-09T09:03:33Z
2020-10-09T07:05:42Z,42.805,6.029,13.2987,4.60008,2470.171,2020-10-09T09:06:36Z
2020-10-09T07:08:45Z,42.805,6.029,13.2983,4.60006,2470.1,2020-10-09T09:09:39Z
2020-10-09T07:11:48Z,42.805,6.029,13.2986,4.60011,2470.124,2020-10-09T09:12:42Z
2020-10-09T07:14:51Z,42.805,6.029,13.2977,4.60005,2470.156,2020-10-09T09:15:45Z
2020-10-09T07:17:55Z,42.805,6.029,13.2976,4.60004,2470.156,2020-10-09T09:18:48Z
2020-10-09T07:20:58Z,42.805,6.029,13.2974,4.59990,2470.133,2020-10-09T09:21:51Z
2020-10-09T07:24:01Z,42.805,6.029,13.2974,4.59996,2470.133,2020-10-09T09:24:54Z
2020-10-09T07:27:04Z,42.805,6.029,13.2973,4.59994,2470.147,2020-10-09T09:27:57Z
2020-10-09T07:30:07Z,42.805,6.029,13.2974,4.59989,2470.147,2020-10-09T09:31:01Z
2020-10-09T07:33:10Z,42.805,6.029,13.2975,4.59987,2470.156,2020-10-09T09:34:04Z
2020-10-09T07:36:13Z,42.805,6.029,13.2975,4.59987,2470.156,2020-10-09T09:37:07Z
2020-10-09T07:39:16Z,42.805,6.029,13.2975,4.59992,2470.194,2020-10-09T09:40:10Z
2020-10-09T07:42:19Z,42.805,6.029,13.2976,4.59982,2470.156,2020-10-09T09:43:13Z
2020-10-09T07:45:23Z,42.805,6.029,13.2974,4.59981,2470.156,2020-10-09T09:46:16Z
2020-10-09T07:48:26Z,42.805,6.029,13.2975,4.59978,2470.147,2020-10-09T09:49:19Z
2020-10-09T07:51:29Z,42.805,6.029,13.2972,4.59979,2470.18,2020-10-09T09:52:22Z
2020-10-09T07:54:32Z,42.805,6.029,13.2975,4.59979,2470.18,2020-10-09T09:55:25Z
2020-10-09T07:57:35Z,42.805,6.029,13.2974,4.59978,2470.156,2020-10-09T09:58:29Z
2020-10-09T08:00:38Z,42.805,6.029,13.2973,4.59979,2470.171,2020-10-09T10:01:32Z
2020-10-09T08:03:41Z,42.805,6.029,13.2976,4.59980,2470.156,2020-10-09T10:04:35Z
2020-10-09T08:06:44Z,42.805,6.029,13.2973,4.59980,2470.194,2020-10-09T10:07:38Z
2020-10-09T08:09:48Z,42.805,6.029,13.2971,4.59981,2470.156,2020-10-09T10:10:41Z
2020-10-09T08:12:51Z,42.805,6.029,13.2974,4.59978,2470.18,2020-10-09T10:13:44Z
2020-10-09T08:15:54Z,42.805,6.029,13.2973,4.59978,2470.203,2020-10-09T10:16:47Z
2020-10-09T08:18:57Z,42.805,6.029,13.2973,4.59978,2470.18,2020-10-09T10:19:50Z
2020-10-09T08:22:00Z,42.805,6.029,13.2976,4.59981,2470.18,2020-10-09T10:22:54Z
2020-10-09T08:25:03Z,42.805,6.029,13.2973,4.59978,2470.203,2020-10-09T10:25:57Z
2020-10-09T08:28:06Z,42.805,6.029,13.2969,4.59978,2470.156,2020-10-09T10:29:00Z
2020-10-09T08:31:09Z,42.805,6.029,13.2975,4.59980,2470.171,2020-10-09T10:32:03Z
2020-10-09T08:34:13Z,42.805,6.029,13.2975,4.59978,2470.203,2020-10-09T10:35:06Z
2020-10-09T08:37:16Z,42.805,6.029,13.2974,4.59980,2470.18,2020-10-09T10:38:09Z
2020-10-09T08:40:19Z,42.805,6.029,13.2973,4.59979,2470.203,2020-10-09T10:41:12Z
2020-10-09T08:43:22Z,42.805,6.029,13.2971,4.59980,2470.156,2020-10-09T10:44:15Z
2020-10-09T08:46:25Z,42.805,6.029,13.2974,4.59981,2470.18,2020-10-09T10:47:19Z
2020-10-09T08:49:28Z,42.805,6.029,13.2978,4.59977,2470.18,2020-10-09T10:50:22Z
2020-10-09T08:52:31Z,42.805,6.029,13.2975,4.59978,2470.156,2020-10-09T10:53:25Z
2020-10-09T08:55:34Z,42.805,6.029,13.2971,4.59978,2470.171,2020-10-09T10:56:28Z
2020-10-09T08:58:38Z,42.805,6.029,13.2974,4.59978,2470.227,2020-10-09T10:59:31Z
2020-10-09T09:01:41Z,42.805,6.029,13.2974,4.59978,2470.217,2020-10-09T11:02:34Z
2020-10-09T09:04:44Z,42.805,6.029,13.2971,4.59980,2470.189,2020-10-09T11:05:37Z
2020-10-09T09:07:47Z,42.805,6.029,13.2974,4.59978,2470.213,2020-10-09T11:08:40Z
2020-10-09T09:10:50Z,42.805,6.029,13.2974,4.59981,2470.203,2020-10-09T11:11:44Z
2020-10-09T09:13:53Z,42.805,6.029,13.2974,4.59981,2470.227,2020-10-09T11:14:47Z
2020-10-09T09:16:56Z,42.805,6.029,13.2971,4.59979,2470.227,2020-10-09T11:17:50Z
2020-10-09T09:19:59Z,42.805,6.029,13.2970,4.59980,2470.217,2020-10-09T11:20:53Z
2020-10-09T09:23:02Z,42.805,6.029,13.2973,4.59979,2470.18,2020-10-09T11:23:56Z
2020-10-09T09:26:06Z,42.805,6.029,13.2974,4.59980,2470.24,2020-10-09T11:26:59Z
2020-10-09T09:29:09Z,42.805,6.029,13.2974,4.59978,2470.203,2020-10-09T11:30:02Z
2020-10-09T09:32:12Z,42.805,6.029,13.2974,4.59982,2470.227,2020-10-09T11:33:05Z
2020-10-09T09:35:15Z,42.805,6.029,13.2971,4.59980,2470.24,2020-10-09T11:36:09Z
2020-10-09T09:38:18Z,42.805,6.029,13.2974,4.59978,2470.25,2020-10-09T11:39:12Z
2020-10-09T09:41:21Z,42.805,6.029,13.2974,4.59981,2470.203,2020-10-09T11:42:15Z
2020-10-09T09:44:24Z,42.805,6.029,13.2974,4.59980,2470.203,2020-10-09T11:45:18Z
2020-10-09T09:47:27Z,42.805,6.029,13.2975,4.59978,2470.25,2020-10-09T11:48:21Z
2020-10-09T09:50:31Z,42.805,6.029,13.2975,4.59978,2470.227,2020-10-09T11:51:24Z
2020-10-09T09:53:34Z,42.805,6.029,13.2976,4.59978,2470.264,2020-10-09T11:54:27Z
2020-10-09T09:56:37Z,42.805,6.029,13.2974,4.59977,2470.203,2020-10-09T11:57:30Z
2020-10-09T09:59:40Z,42.805,6.029,13.2974,4.59978,2470.217,2020-10-09T12:00:34Z
2020-10-09T10:02:43Z,42.805,6.029,13.2971,4.59978,2470.25,2020-10-09T12:03:37Z
2020-10-09T10:05:46Z,42.805,6.029,13.2971,4.59978,2470.25,2020-10-09T12:06:40Z
2020-10-09T10:08:49Z,42.805,6.029,13.2972,4.59978,2470.227,2020-10-09T12:09:43Z
2020-10-09T10:11:52Z,42.805,6.029,13.2971,4.59976,2470.25,2020-10-09T12:12:46Z
2020-10-09T10:14:56Z,42.805,6.029,13.2974,4.59978,2470.25,2020-10-09T12:15:49Z
2020-10-09T10:17:59Z,42.805,6.029,13.2975,4.59980,2470.287,2020-10-09T12:18:52Z
2020-10-09T10:21:02Z,42.805,6.029,13.2973,4.59980,2470.25,2020-10-09T12:21:55Z
2020-10-09T10:24:05Z,42.805,6.029,13.2971,4.59978,2470.24,2020-10-09T12:24:59Z
2020-10-09T10:27:08Z,42.805,6.029,13.2974,4.59978,2470.227,2020-10-09T12:28:02Z
2020-10-09T10:30:11Z,42.805,6.029,13.2974,4.59979,2470.273,2020-10-09T12:31:05Z
2020-10-09T10:33:14Z,42.805,6.029,13.2973,4.59980,2470.25,2020-10-09T12:34:08Z
2020-10-09T10:36:17Z,42.805,6.029,13.2974,4.59978,2470.25,2020-10-09T12:37:11Z
2020-10-09T10:39:21Z,42.805,6.029,13.2973,4.59978,2470.24,2020-10-09T12:40:14Z
2020-10-09T10:42:24Z,42.805,6.029,13.2974,4.59978,2470.287,2020-10-09T12:43:17Z
2020-10-09T10:45:27Z,42.805,6.029,13.2970,4.59978,2470.26,2020-10-09T12:46:20Z
2020-10-09T10:48:30Z,42.805,6.029,13.2976,4.59978,2470.287,2020-10-09T12:49:24Z
2020-10-09T10:51:33Z,42.805,6.029,13.2974,4.59979,2470.25,2020-10-09T12:52:27Z
2020-10-09T10:54:36Z,42.805,6.029,13.2973,4.59979,2470.264,2020-10-09T12:55:30Z
2020-10-09T10:57:39Z,42.805,6.029,13.2971,4.59979,2470.25,2020-10-09T12:58:33Z
2020-10-09T11:00:42Z,42.805,6.029,13.2973,4.59980,2470.264,2020-10-09T13:01:36Z
2020-10-09T11:03:46Z,42.805,6.029,13.2973,4.59980,2470.283,2020-10-09T13:04:39Z
2020-10-09T11:06:49Z,42.805,6.029,13.2976,4.59979,2470.25,2020-10-09T13:07:42Z
2020-10-09T11:09:52Z,42.805,6.029,13.2975,4.59980,2470.297,2020-10-09T13:10:45Z
2020-10-09T11:12:55Z,42.805,6.029,13.2974,4.59980,2470.227,2020-10-09T13:13:48Z
2020-10-09T11:15:58Z,42.805,6.029,13.2974,4.59978,2470.273,2020-10-09T13:16:52Z
2020-10-09T11:19:01Z,42.805,6.029,13.2976,4.59980,2470.287,2020-10-09T13:19:55Z
2020-10-09T11:22:04Z,42.805,6.029,13.2970,4.59980,2470.273,2020-10-09T13:22:58Z
2020-10-09T11:25:07Z,42.805,6.029,13.2972,4.59981,2470.25,2020-10-09T13:26:01Z
2020-10-09T11:28:11Z,42.805,6.029,13.2973,4.59978,2470.273,2020-10-09T13:29:04Z
2020-10-09T11:31:14Z,42.805,6.029,13.2971,4.59978,2470.273,2020-10-09T13:32:07Z
2020-10-09T11:34:17Z,42.805,6.029,13.2975,4.59977,2470.25,2020-10-09T13:35:10Z
2020-10-09T11:37:20Z,42.805,6.029,13.2974,4.59976,2470.273,2020-10-09T13:38:13Z
2020-10-09T11:40:23Z,42.805,6.029,13.2972,4.59978,2470.273,2020-10-09T13:41:17Z
2020-10-09T11:43:26Z,42.805,6.029,13.2973,4.59980,2470.227,2020-10-09T13:44:20Z
2020-10-09T11:46:29Z,42.805,6.029,13.2974,4.59981,2470.25,2020-10-09T13:47:23Z
2020-10-09T11:49:32Z,42.805,6.029,13.2974,4.59983,2470.25,2020-10-09T13:50:26Z
2020-10-09T11:52:36Z,42.805,6.029,13.2972,4.59981,2470.227,2020-10-09T13:53:29Z
2020-10-09T11:55:39Z,42.805,6.029,13.2972,4.59978,2470.273,2020-10-09T13:56:32Z
2020-10-09T11:58:42Z,42.805,6.029,13.2974,4.59979,2470.25,2020-10-09T13:59:35Z
2020-10-09T12:01:45Z,42.805,6.029,13.2971,4.59980,2470.264,2020-10-09T14:02:38Z
2020-10-09T12:04:48Z,42.805,6.029,13.2971,4.59980,2470.25,2020-10-09T14:05:42Z
2020-10-09T12:07:51Z,42.805,6.029,13.2971,4.59977,2470.25,2020-10-09T14:08:45Z
2020-10-09T12:10:54Z,42.805,6.029,13.2973,4.59979,2470.264,2020-10-09T14:11:48Z
2020-10-09T12:13:57Z,42.805,6.029,13.2976,4.59983,2470.273,2020-10-09T14:14:51Z
2020-10-09T12:17:01Z,42.805,6.029,13.2971,4.59980,2470.227,2020-10-09T14:17:54Z
2020-10-09T12:20:04Z,42.805,6.029,13.2973,4.59979,2470.25,2020-10-09T14:20:57Z
2020-10-09T12:23:07Z,42.805,6.029,13.2974,4.59979,2470.25,2020-10-09T14:24:00Z
2020-10-09T12:26:10Z,42.805,6.029,13.2974,4.59978,2470.273,2020-10-09T14:27:03Z
2020-10-09T12:29:13Z,42.805,6.029,13.2975,4.59976,2470.25,2020-10-09T14:30:07Z
2020-10-09T12:32:16Z,42.805,6.029,13.2971,4.59976,2470.264,2020-10-09T14:33:10Z
2020-10-09T12:35:19Z,42.805,6.029,13.2972,4.59979,2470.287,2020-10-09T14:36:13Z
2020-10-09T12:38:22Z,42.805,6.029,13.2972,4.59982,2470.287,2020-10-09T14:39:16Z
2020-10-09T12:41:26Z,42.805,6.029,13.2969,4.59981,2470.25,2020-10-09T14:42:19Z
2020-10-09T12:44:29Z,42.805,6.029,13.2976,4.59981,2470.287,2020-10-09T14:45:22Z
2020-10-09T12:47:32Z,42.805,6.029,13.2975,4.59982,2470.25,2020-10-09T14:48:25Z
2020-10-09T12:50:35Z,42.805,6.029,13.2972,4.59980,2470.273,2020-10-09T14:51:28Z
2020-10-09T12:53:38Z,42.805,6.029,13.2974,4.59979,2470.287,2020-10-09T14:54:32Z
2020-10-09T12:56:41Z,42.805,6.029,13.2972,4.59979,2470.227,2020-10-09T14:57:35Z
2020-10-09T12:59:44Z,42.805,6.029,13.2970,4.59978,2470.25,2020-10-09T15:00:38Z
2020-10-09T13:02:47Z,42.805,6.029,13.2972,4.59979,2470.236,2020-10-09T15:03:41Z
2020-10-09T13:05:50Z,42.805,6.029,13.2972,4.59982,2470.287,2020-10-09T15:06:44Z
2020-10-09T13:08:54Z,42.805,6.029,13.2975,4.59978,2470.25,2020-10-09T15:09:47Z
2020-10-09T13:11:57Z,42.805,6.029,13.2974,4.59981,2470.273,2020-10-09T15:12:50Z
2020-10-09T13:15:00Z,42.805,6.029,13.2974,4.59979,2470.273,2020-10-09T15:15:53Z
2020-10-09T13:18:03Z,42.805,6.029,13.2977,4.59981,2470.25,2020-10-09T15:18:57Z
2020-10-09T13:21:06Z,42.805,6.029,13.2975,4.59983,2470.25,2020-10-09T15:22:00Z
2020-10-09T13:24:09Z,42.805,6.029,13.2976,4.59986,2470.273,2020-10-09T15:25:03Z
2020-10-09T13:27:12Z,42.805,6.029,13.2971,4.59980,2470.264,2020-10-09T15:28:06Z
2020-10-09T13:30:15Z,42.805,6.029,13.2974,4.59983,2470.264,2020-10-09T15:31:09Z
2020-10-09T13:33:19Z,42.805,6.029,13.2975,4.59987,2470.25,2020-10-09T15:34:12Z
2020-10-09T13:36:22Z,42.805,6.029,13.2971,4.59981,2470.264,2020-10-09T15:37:15Z
2020-10-09T13:39:25Z,42.805,6.029,13.2974,4.59985,2470.25,2020-10-09T15:40:18Z
2020-10-09T13:42:28Z,42.805,6.029,13.2974,4.59984,2470.227,2020-10-09T15:43:21Z
2020-10-09T13:45:31Z,42.805,6.029,13.2973,4.59981,2470.25,2020-10-09T15:46:25Z
2020-10-09T13:48:34Z,42.805,6.029,13.2971,4.59983,2470.25,2020-10-09T15:49:28Z
2020-10-09T13:51:37Z,42.805,6.029,13.2975,4.59981,2470.25,2020-10-09T15:52:31Z
2020-10-09T13:54:40Z,42.805,6.029,13.2973,4.59981,2470.264,2020-10-09T15:55:34Z
2020-10-09T13:57:44Z,42.805,6.029,13.2971,4.59981,2470.264,2020-10-09T15:58:37Z
2020-10-09T14:00:47Z,42.805,6.029,13.2974,4.59984,2470.264,2020-10-09T16:01:40Z
2020-10-09T14:03:50Z,42.805,6.029,13.2971,4.59985,2470.264,2020-10-09T16:04:43Z
2020-10-09T14:06:53Z,42.805,6.029,13.2971,4.59981,2470.273,2020-10-09T16:07:47Z
2020-10-09T14:09:56Z,42.805,6.029,13.2974,4.59994,2470.287,2020-10-09T16:10:50Z
2020-10-09T14:12:59Z,42.805,6.029,13.2974,4.59991,2470.25,2020-10-09T16:13:53Z
2020-10-09T14:16:02Z,42.805,6.029,13.2971,4.59983,2470.227,2020-10-09T16:16:56Z
2020-10-09T14:19:05Z,42.805,6.029,13.2976,4.59984,2470.25,2020-10-09T16:19:59Z
2020-10-09T14:22:09Z,42.805,6.029,13.2973,4.59991,2470.264,2020-10-09T16:23:02Z
2020-10-09T14:25:12Z,42.805,6.029,13.2973,4.59987,2470.227,2020-10-09T16:26:05Z
2020-10-09T14:28:15Z,42.805,6.029,13.2972,4.59986,2470.227,2020-10-09T16:29:08Z
2020-10-09T14:31:18Z,42.805,6.029,13.2974,4.59988,2470.25,2020-10-09T16:32:11Z
2020-10-09T14:34:21Z,42.805,6.029,13.2974,4.59991,2470.25,2020-10-09T16:35:15Z
2020-10-09T14:37:24Z,42.805,6.029,13.2976,4.59982,2470.264,2020-10-09T16:38:18Z
2020-10-09T14:40:27Z,42.805,6.029,13.2972,4.59987,2470.264,2020-10-09T16:41:21Z
2020-10-09T14:43:30Z,42.805,6.029,13.2976,4.59983,2470.227,2020-10-09T16:44:24Z
2020-10-09T14:46:34Z,42.805,6.029,13.2977,4.59995,2470.273,2020-10-09T16:47:27Z
2020-10-09T14:49:37Z,42.805,6.029,13.2972,4.59981,2470.264,2020-10-09T16:50:30Z
2020-10-09T14:52:40Z,42.805,6.029,13.2975,4.59980,2470.25,2020-10-09T16:53:33Z
2020-10-09T14:55:43Z,42.805,6.029,13.2974,4.59985,2470.25,2020-10-09T16:56:36Z
2020-10-09T14:58:46Z,42.805,6.029,13.2971,4.59981,2470.264,2020-10-09T16:59:40Z
2020-10-09T15:01:49Z,42.805,6.029,13.2974,4.59979,2470.227,2020-10-09T17:02:43Z